Wind_Speed
42 43 43 44 45 46 47 49 50 52 53 55 56 58 59 61 62 63 63 64 65 65 66 66 66 67 67 68 68 69 70 72 73 74 75 75 76 75 75 74 75 76 78 80 81 82 83 83 83 84 84 84 83 82 82 83 83 82 81 78 74 71 69 68 69 68 68 70 70 72 75 76 76 73 71 69 67 67 69 70 70 70 71 72 71 69 67 65
44 44 45 46 47 48 49 51 53 54 56 57 59 60 62 63 65 66 67 68 69 70 70 71 71 71 72 72 71 72 73 74 75 75 76 78 78 78 77 77 77 77 78 79 81 82 83 84 84 84 85 85 84 83 83 83 83 83 81 78 73 71 70 71 72 69 70 72 72 73 74 75 75 72 70 68 66 65 65 66 66 67 67 67 67 67 66 64
46 47 47 48 49 51 52 54 56 58 59 61 63 64 66 67 69 70 71 72 73 74 75 75 76 76 77 77 76 75 76 77 77 77 78 79 79 79 79 80 80 80 79 80 81 82 83 84 85 85 86 86 86 85 84 84 83 82 81 77 72 71 73 74 72 71 73 74 74 74 74 74 74 72 70 68 66 65 65 65 64 63 62 61 61 61 60 59
48 49 50 51 52 54 55 57 59 61 63 65 67 69 70 72 74 75 76 77 78 79 79 80 81 81 82 82 81 80 81 81 80 80 80 80 81 81 81 82 83 83 82 82 82 82 83 83 85 86 87 87 86 86 86 84 82 81 80 75 70 73 76 74 71 73 76 76 75 75 74 74 74 73 71 69 66 66 66 66 64 62 61 60 59 58 56 55
49 50 52 53 54 56 58 59 61 63 66 68 71 73 75 77 79 81 82 83 84 85 85 86 86 86 87 87 86 85 86 86 84 82 81 82 83 83 84 85 85 86 86 85 84 83 83 83 84 86 87 87 87 86 85 84 83 83 79 73 72 76 76 73 73 76 77 77 77 75 74 74 74 72 71 69 67 67 67 66 65 63 61 60 59 57 56 55
48 50 52 53 55 56 58 60 62 65 68 72 75 78 81 83 85 86 88 89 90 91 92 92 92 92 92 93 92 91 91 91 89 86 85 85 85 85 86 87 88 88 88 88 87 86 85 85 85 85 86 87 87 85 84 85 85 84 79 74 75 77 75 74 76 78 78 78 78 75 74 74 73 72 71 69 68 67 65 65 64 62 61 60 59 57 56 55
43 46 48 49 51 53 56 60 64 68 73 77 80 83 86 89 91 93 94 96 97 98 98 98 98 98 98 98 98 97 97 96 94 92 91 90 88 88 88 90 90 90 90 90 89 89 88 88 86 85 86 87 86 84 85 87 86 84 80 77 78 76 74 76 77 77 78 78 78 76 75 74 74 73 71 69 68 66 65 65 64 62 61 59 58 57 55 54
36 39 41 44 48 52 57 62 67 72 77 81 85 88 91 94 96 98 99 101 102 102 103 103 103 103 103 104 103 103 103 102 99 97 96 95 92 91 90 91 92 93 93 92 92 91 91 90 88 88 87 87 86 85 86 87 85 83 80 79 80 76 75 78 76 77 79 78 78 76 75 75 74 73 71 70 68 66 66 65 63 62 60 58 57 55 53 52
33 36 40 45 50 55 60 65 70 76 80 85 88 91 93 95 97 98 100 102 103 103 104 105 105 105 106 107 107 108 108 106 103 101 100 99 97 95 94 94 95 96 96 95 94 93 93 93 92 91 89 88 86 85 86 85 84 83 80 81 81 78 78 79 77 77 79 79 78 76 76 75 74 73 71 70 68 66 66 65 64 62 60 59 57 55 53 51
34 39 43 48 52 57 63 68 73 78 82 85 86 88 89 90 91 92 94 96 98 99 100 101 103 104 105 106 107 110 111 109 107 105 104 103 102 100 98 98 98 98 98 98 96 95 95 95 95 94 91 90 87 86 85 84 84 82 81 82 81 79 81 81 78 78 79 78 77 76 76 75 74 73 71 69 68 67 67 65 64 62 60 59 57 55 53 51
37 42 46 50 55 60 65 70 74 76 78 79 79 78 79 80 81 82 84 86 87 89 91 93 94 96 98 100 104 109 111 110 109 108 107 106 106 105 103 102 101 101 100 100 99 98 97 97 97 95 94 93 89 87 86 84 83 81 81 83 81 80 83 82 79 78 78 76 75 76 77 76 74 72 70 68 68 68 67 65 64 62 61 59 57 55 53 51
40 44 48 52 57 61 65 68 70 72 72 70 69 69 69 71 72 73 74 76 78 79 81 82 84 86 88 90 97 103 106 107 108 109 109 109 109 108 107 105 104 103 102 102 102 101 99 99 98 97 97 95 91 90 88 84 83 81 81 83 82 82 83 82 80 79 77 76 75 77 77 75 71 70 70 68 68 69 67 65 64 62 61 59 57 54 53 51
43 46 50 53 57 60 63 65 66 67 65 63 62 62 63 65 66 67 68 69 70 71 72 74 75 76 77 81 89 94 96 99 102 105 109 110 111 111 109 108 108 107 105 104 104 103 102 101 99 99 98 95 94 93 89 85 84 82 81 82 83 84 83 80 80 79 78 77 76 77 75 71 69 71 71 68 69 70 68 66 64 61 60 58 56 54 52 51
44 47 50 53 57 60 62 62 63 63 60 57 56 57 59 61 63 64 65 66 66 66 67 67 67 68 69 73 81 85 87 91 94 98 103 106 110 112 111 111 110 110 108 107 105 105 104 103 102 101 99 97 97 93 90 89 88 85 83 83 83 82 80 79 80 79 79 78 76 77 74 68 70 72 70 69 70 70 68 67 65 61 59 57 56 54 52 51
45 47 50 54 57 59 60 61 61 60 57 54 53 54 55 57 58 59 61 63 64 65 65 64 63 62 62 68 75 76 78 82 86 90 95 99 104 108 111 112 113 113 112 109 108 106 106 106 104 102 100 99 98 94 94 93 91 88 86 83 81 78 78 79 79 78 79 79 77 79 73 68 73 71 67 69 70 70 70 67 65 62 59 57 56 55 53 52
45 48 51 55 57 60 60 60 60 59 55 52 50 50 51 52 52 54 55 58 60 61 62 63 62 59 59 63 68 70 72 75 78 83 87 92 97 101 107 111 114 115 114 112 110 108 108 108 107 105 103 101 99 97 97 95 93 91 86 81 77 75 77 79 77 77 79 79 78 78 72 72 75 69 66 69 69 70 70 68 66 63 60 58 57 56 55 54
48 50 53 56 59 61 62 61 60 59 56 51 49 48 47 47 48 49 51 52 53 54 56 58 58 58 58 60 62 65 68 70 72 75 80 85 90 95 101 107 113 116 116 115 112 110 109 109 109 108 105 102 100 100 100 97 93 90 84 79 76 75 76 77 75 76 78 78 77 76 74 77 76 68 67 70 71 71 69 68 66 64 61 59 58 57 56 55
51 53 56 59 62 63 64 63 62 61 58 53 50 48 46 44 44 45 47 48 47 48 50 51 52 54 56 58 59 59 61 64 68 71 75 80 85 90 95 101 107 113 117 117 115 113 112 111 111 110 108 105 102 101 99 94 88 85 82 78 77 77 76 76 74 74 77 77 77 77 77 79 75 70 70 71 71 70 68 68 67 65 62 60 58 57 57 56
54 56 58 61 64 66 66 65 63 63 60 57 53 50 47 43 42 43 45 45 44 46 47 46 46 48 51 54 55 54 55 58 64 69 72 75 79 84 90 95 101 108 114 117 117 116 114 113 113 112 110 105 101 97 93 90 88 87 85 83 83 82 78 76 73 71 74 76 76 76 77 78 75 72 73 73 73 71 69 68 66 64 61 59 58 58 58 57
58 59 61 63 66 68 68 67 65 65 63 60 56 53 49 44 40 40 43 42 41 43 44 42 43 43 44 46 49 51 53 55 59 66 69 70 74 79 84 90 96 102 108 113 116 117 117 116 114 111 107 103 99 95 93 94 94 91 90 88 88 85 79 77 73 69 72 75 74 74 77 79 76 73 75 76 75 73 70 68 66 64 61 60 60 59 59 58
61 62 63 65 68 70 71 70 67 66 65 62 57 54 50 45 41 38 40 41 39 41 41 40 40 38 37 39 44 48 50 51 54 60 64 66 70 75 79 85 91 97 102 108 114 117 119 117 113 108 105 104 102 100 100 99 95 93 91 89 87 84 80 79 76 70 72 76 75 75 77 78 75 74 76 77 76 74 71 68 66 65 64 63 62 60 60 58
64 65 66 68 70 72 73 72 69 68 67 63 58 54 50 46 42 38 37 39 38 39 39 38 37 36 35 35 39 42 44 46 49 53 57 63 69 73 77 82 87 92 97 104 110 115 117 115 110 107 107 108 107 105 103 99 95 94 92 89 88 86 84 82 78 73 74 76 75 76 76 76 75 74 75 75 74 73 71 69 68 67 65 63 62 60 59 57
66 68 69 70 72 74 76 75 72 69 68 64 59 56 52 48 44 40 38 38 37 37 38 36 35 34 33 33 35 38 40 41 44 47 52 59 66 71 75 80 84 88 95 101 105 108 110 110 109 110 111 111 108 105 103 99 96 94 93 91 90 88 86 83 78 76 76 76 77 75 74 75 74 73 73 73 73 73 72 70 69 68 65 63 62 60 59 57
68 70 72 73 74 76 78 78 74 72 70 66 62 59 56 51 45 41 39 38 36 34 34 34 32 30 31 31 32 34 36 38 41 44 49 57 64 70 74 78 82 86 91 96 100 101 103 108 112 114 113 110 107 105 104 101 97 95 94 93 91 90 87 83 81 80 79 79 78 74 74 74 71 69 70 70 71 71 69 68 67 66 63 63 62 60 59 59
70 72 74 75 76 78 80 80 77 74 72 69 65 61 59 56 49 42 38 37 34 31 28 29 29 27 27 29 29 31 33 36 39 42 47 54 61 67 71 75 79 83 86 91 95 96 99 106 112 114 111 109 108 107 105 102 98 96 95 93 92 90 87 85 84 83 83 82 78 75 75 73 68 67 67 67 68 68 67 66 65 64 63 63 62 60 60 61
72 73 75 77 78 79 81 82 79 76 75 73 68 63 61 59 53 45 39 35 33 30 27 26 26 25 25 25 27 29 30 33 37 41 44 49 55 61 65 70 74 79 83 88 92 94 97 103 109 111 111 111 111 108 105 102 99 97 95 93 92 89 87 87 86 85 85 82 79 77 76 72 67 66 65 64 65 65 65 63 63 63 63 63 61 60 61 62
74 74 76 77 79 81 82 83 81 78 76 75 72 66 62 60 56 49 41 35 31 31 30 28 25 23 22 23 25 26 28 30 34 37 41 45 50 55 60 64 69 75 80 86 88 91 95 99 104 108 110 112 111 108 105 103 100 98 95 93 92 90 89 90 87 87 86 84 83 80 77 73 68 65 63 62 62 63 62 61 61 62 61 61 61 61 62 62
75 75 76 78 80 81 83 84 82 79 77 76 75 70 65 62 58 52 44 37 34 32 31 29 26 23 21 21 23 24 25 27 29 33 38 41 45 51 55 59 65 71 77 83 84 86 91 95 99 105 109 111 110 108 106 103 101 99 96 94 93 92 92 91 89 88 89 88 85 80 78 74 67 64 63 61 60 59 58 58 58 59 59 59 60 61 62 60
77 76 78 79 81 82 83 84 83 80 77 76 77 73 67 63 60 53 47 42 38 34 31 29 27 24 21 20 20 21 22 24 26 29 34 38 41 45 50 54 60 66 73 77 79 84 89 92 97 103 108 110 109 109 108 105 103 101 97 95 95 94 93 92 91 91 91 88 83 80 78 73 67 64 62 58 56 55 55 56 56 56 57 58 59 60 60 57
78 77 78 80 82 83 84 85 84 81 78 76 77 75 70 65 61 56 50 45 41 36 32 30 28 24 21 19 19 19 20 22 23 26 30 34 37 41 45 50 55 61 68 72 76 83 86 89 95 101 106 109 110 111 109 106 105 102 98 97 97 96 95 94 93 93 92 86 81 79 77 73 69 64 60 56 53 53 54 54 53 54 55 56 58 59 57 55
79 78 79 80 82 84 85 86 85 83 79 76 76 75 71 66 63 60 55 49 43 38 34 30 28 25 21 18 17 17 18 19 21 23 26 30 34 37 42 46 52 58 65 70 76 80 81 86 93 97 102 107 110 111 108 107 106 102 99 99 99 97 96 95 95 94 90 83 80 80 78 75 70 63 60 57 54 54 54 53 53 54 55 57 58 58 56 55
79 78 79 80 83 84 85 86 86 84 80 76 75 74 71 67 65 63 59 53 45 39 35 31 28 26 22 18 16 15 16 17 18 20 23 26 30 34 39 44 50 56 62 68 73 74 77 83 89 93 98 104 107 109 109 109 107 103 102 102 101 99 97 96 95 92 86 81 81 81 79 76 69 63 62 59 56 56 55 54 55 56 57 58 58 57 54 53
80 78 78 80 82 84 86 87 86 84 80 76 74 73 70 67 65 64 61 55 49 42 36 33 29 26 23 19 16 13 13 14 16 17 20 23 27 31 36 41 47 52 59 66 69 70 75 82 87 91 96 100 105 108 109 109 105 103 103 101 98 97 95 93 91 87 84 83 82 80 78 75 68 65 64 60 57 57 57 57 57 57 58 58 57 54 50 49
79 78 78 80 82 84 86 87 86 84 80 76 74 72 70 68 65 63 60 54 49 44 38 34 31 27 23 20 16 12 11 12 13 15 18 20 24 28 33 37 42 48 55 62 66 68 73 78 83 88 91 96 102 106 107 106 103 101 100 97 95 94 91 88 87 85 85 84 81 80 78 73 69 67 64 61 61 61 59 59 59 58 57 56 53 50 46 47
79 77 78 79 82 84 85 86 86 84 80 77 73 71 71 69 65 63 60 53 45 41 38 34 30 27 23 20 16 11 9 9 10 12 15 18 21 25 30 34 39 45 51 57 61 66 70 74 80 84 87 93 99 103 106 105 104 103 101 98 96 93 90 90 89 88 88 85 81 79 76 72 70 67 64 63 64 63 62 61 59 58 55 53 50 47 46 46
78 77 77 79 81 83 85 85 85 83 81 77 73 72 72 70 66 63 60 53 43 36 34 31 28 25 22 19 15 11 8 7 8 10 12 16 19 23 27 32 37 43 49 54 59 63 68 73 79 84 87 92 97 102 104 104 104 104 102 99 96 93 92 91 90 88 87 83 80 77 74 71 70 66 64 66 66 64 63 61 59 58 56 53 50 49 47 44
77 76 75 77 80 83 84 85 84 83 80 78 75 74 73 71 67 63 59 54 45 36 31 29 27 25 22 19 15 11 7 6 5 7 10 14 19 24 28 33 37 42 48 54 59 63 66 72 77 81 85 90 96 100 103 104 105 103 100 96 94 93 91 89 88 86 84 81 78 76 73 71 70 67 67 69 67 65 64 62 61 59 56 54 53 51 48 45
77 75 75 76 79 82 84 85 84 82 79 77 75 74 73 71 67 63 60 56 48 39 32 30 29 27 24 21 16 11 7 4 3 6 9 14 19 25 30 34 38 42 46 51 57 61 65 70 75 80 84 89 94 98 102 104 104 102 100 98 97 93 89 87 87 84 83 82 78 76 74 72 70 68 68 69 67 65 64 63 62 60 57 56 55 53 49 47
78 75 74 76 78 81 83 84 83 81 78 75 72 70 70 70 67 63 61 59 52 43 35 32 31 28 25 21 17 12 7 3 2 5 10 14 19 25 30 35 39 42 45 50 55 59 63 68 74 79 84 89 93 97 100 102 101 101 100 98 95 91 89 88 86 83 82 81 77 76 74 72 69 67 67 68 67 65 65 63 61 60 59 58 57 54 51 49
78 74 74 76 79 81 83 83 82 80 77 74 71 68 67 68 67 63 60 59 55 47 38 34 32 29 25 21 17 12 8 3 1 6 10 15 20 25 31 34 38 42 45 50 54 57 62 67 72 77 82 84 88 93 96 98 98 98 96 92 90 88 88 86 84 82 81 78 76 75 72 70 69 67 66 67 67 65 63 62 61 60 59 59 57 55 53 52
78 75 73 76 79 81 82 83 82 79 76 73 70 68 66 65 65 62 60 59 56 49 41 35 33 30 25 21 17 13 8 4 1 6 10 15 20 26 31 34 37 41 46 49 52 56 60 65 69 73 76 79 84 89 93 95 96 94 91 89 88 86 84 82 80 79 78 76 74 72 70 69 69 67 66 67 66 64 62 61 61 60 59 59 58 55 54 54
78 75 73 75 79 82 83 83 82 79 76 72 69 66 64 64 63 61 58 56 54 50 43 37 34 31 27 22 18 13 9 4 2 6 9 14 19 24 29 33 36 40 46 49 52 55 59 63 67 71 75 79 83 87 90 93 94 93 91 90 87 84 82 79 78 77 76 75 73 71 69 69 68 67 67 67 66 63 62 61 61 60 59 58 57 56 55 55
77 73 72 74 78 82 83 83 82 80 76 72 69 66 63 63 63 60 56 53 51 48 43 38 35 32 28 23 18 13 9 5 3 6 10 13 18 23 27 32 36 39 42 46 51 55 58 61 65 71 75 79 83 86 89 92 93 92 90 87 84 81 80 79 80 80 77 74 72 71 70 68 67 67 67 66 65 63 61 61 60 60 59 57 56 55 54 54
74 72 73 75 78 81 82 82 81 79 76 72 69 67 64 62 62 60 55 52 50 46 41 37 34 31 27 22 17 13 9 6 5 7 11 14 19 23 26 29 33 36 39 43 48 54 59 62 66 70 74 77 81 84 87 88 87 87 85 84 82 82 82 81 80 77 74 73 73 72 71 69 68 67 67 66 64 62 60 59 59 58 57 56 55 54 53 53
73 71 73 76 78 80 81 81 79 77 75 71 67 65 63 60 60 59 56 53 51 47 41 36 33 31 27 22 17 13 9 7 6 8 11 15 20 24 27 28 31 35 39 43 47 52 57 61 66 69 71 73 75 77 78 80 82 83 83 83 83 83 82 80 76 71 70 71 72 71 71 70 69 69 68 66 64 61 59 58 57 57 56 55 54 53 52 52
71 70 72 75 79 81 81 80 78 75 73 70 65 62 61 60 58 58 56 53 51 48 43 37 33 31 27 21 17 14 11 8 7 8 12 16 21 25 28 28 30 33 38 41 45 50 55 59 62 65 69 72 73 74 76 79 81 82 82 81 81 80 79 77 75 72 71 70 69 69 70 70 69 69 68 66 63 61 60 58 57 57 56 54 53 52 52 53
68 68 71 74 78 81 81 79 77 74 70 67 63 59 57 57 57 57 55 52 49 46 43 37 32 30 27 21 17 14 12 10 8 10 12 14 20 25 26 25 26 30 35 39 43 48 53 57 60 63 67 69 71 73 76 77 78 79 79 78 76 75 75 73 72 71 71 69 67 68 69 69 68 68 68 65 63 61 60 59 58 57 56 54 52 51 52 52
67 68 71 74 78 81 81 79 76 74 70 66 63 58 55 54 53 54 54 51 47 44 41 36 31 29 26 21 17 14 13 11 9 10 12 14 19 24 25 24 24 27 32 37 42 47 51 55 59 63 66 67 69 72 75 76 76 76 76 75 74 72 71 70 69 69 69 68 68 70 69 68 67 67 66 64 62 61 60 59 58 57 55 53 51 51 50 50
69 70 72 75 78 81 82 79 76 73 69 65 62 57 54 52 50 51 52 50 47 44 41 37 32 29 26 22 18 16 14 12 10 11 12 15 21 26 27 26 25 27 32 37 42 46 50 54 57 60 63 66 68 71 72 73 74 73 73 72 72 71 70 68 68 68 67 67 69 69 68 67 66 66 64 62 61 61 60 59 57 56 55 53 52 51 50 48
69 71 74 77 79 81 82 80 76 73 69 65 61 57 53 50 49 49 50 49 46 43 41 38 33 29 28 24 19 16 14 12 11 10 11 16 22 27 28 28 29 29 32 37 43 46 49 52 55 59 62 65 68 69 69 69 70 70 70 70 70 70 69 69 68 67 66 65 65 65 65 66 66 64 63 62 61 60 60 59 57 56 55 54 53 51 49 48
70 72 74 78 80 81 81 81 76 72 69 65 60 56 53 51 49 47 46 46 44 41 40 38 34 30 28 24 19 16 15 12 10 9 10 13 20 26 28 29 31 32 34 38 42 46 49 51 54 58 62 64 66 67 68 68 68 69 68 67 67 67 67 67 66 66 64 64 64 64 65 65 65 64 63 62 61 60 60 60 59 57 56 54 53 50 48 47
72 73 76 79 82 81 80 80 77 71 67 64 59 54 49 47 47 46 45 45 43 40 37 35 33 29 25 22 18 15 14 12 10 9 8 10 15 22 27 29 31 34 37 40 43 46 49 52 55 58 61 64 66 67 68 68 67 65 64 64 64 65 65 65 65 64 63 63 63 63 64 65 65 64 63 62 61 61 62 61 60 58 56 55 53 50 49 48
Wind_Direction
278 277 276 275 274 273 273 272 271 271 270 270 269 268 268 267 266 265 264 263 262 260 259 257 256 255 254 252 250 248 247 245 244 243 243 242 240 238 238 238 237 236 235 235 235 235 234 234 234 235 235 235 236 236 236 236 236 236 236 236 235 235 235 236 237 237 238 239 240 241 243 244 244 244 244 244 243 242 241 242 244 246 247 249 251 252 253 254
276 276 275 274 274 273 273 272 272 271 271 270 270 269 268 268 267 266 265 264 263 262 261 259 257 256 254 253 251 250 248 247 245 243 242 242 241 239 238 237 237 237 236 235 235 234 234 234 234 234 235 235 235 235 236 236 236 237 237 236 235 235 236 236 236 236 237 238 238 241 243 244 245 244 244 245 245 245 245 245 245 246 247 248 250 252 253 254
273 273 273 273 273 273 273 273 273 273 273 272 272 272 271 270 269 267 266 265 264 263 262 261 259 257 256 254 252 251 249 248 246 244 242 241 241 240 239 238 237 236 236 235 235 234 234 234 234 234 234 234 234 235 235 235 236 237 237 236 235 235 236 235 236 236 237 238 238 240 242 244 245 245 244 245 246 247 247 248 247 247 248 249 251 252 254 255
269 270 271 272 273 274 274 274 275 275 275 274 274 274 273 272 271 270 268 267 266 264 263 261 260 259 257 256 254 252 250 249 247 245 243 242 240 239 239 238 238 236 235 235 235 235 234 233 234 234 234 234 234 234 235 235 235 236 236 235 234 235 235 235 236 236 237 238 238 239 241 243 244 245 244 244 245 246 247 248 249 249 250 251 252 253 254 256
268 268 270 271 273 274 276 277 277 277 277 277 276 275 275 274 273 272 270 269 268 266 265 263 261 260 258 257 256 254 252 250 248 246 245 243 241 239 238 237 237 237 236 235 235 235 235 234 233 233 233 233 234 234 234 235 235 235 235 234 233 234 234 234 234 235 237 237 238 239 241 243 244 244 245 244 244 245 247 248 250 250 251 252 253 254 255 256
270 270 271 273 275 277 279 280 281 281 280 279 278 277 276 275 274 273 271 270 268 267 265 264 263 261 260 258 257 255 253 251 250 248 245 243 241 239 238 237 236 236 236 235 234 234 235 234 233 233 233 233 233 233 233 234 234 234 233 232 233 233 234 234 233 235 236 237 238 238 240 242 243 244 245 245 244 245 247 248 249 250 251 251 252 253 255 256
275 276 277 279 281 283 284 285 285 284 283 282 280 279 277 276 275 273 271 270 268 266 265 264 262 261 260 259 257 256 254 252 251 248 246 244 242 240 238 237 236 235 235 235 234 233 234 234 234 233 233 233 232 232 233 233 232 233 232 231 232 232 232 233 233 235 236 237 238 238 239 241 242 244 245 246 245 245 246 247 249 249 250 251 252 253 254 255
285 286 287 288 289 289 289 289 288 287 285 284 282 280 279 277 275 274 272 270 268 266 265 263 261 260 258 257 256 255 254 253 251 248 247 245 243 240 238 237 236 235 234 234 234 233 233 233 233 233 233 233 232 231 232 232 232 232 231 230 231 231 231 233 232 234 236 236 237 238 238 240 242 243 244 245 246 245 246 247 248 248 249 250 251 252 252 253
296 295 295 294 293 292 291 291 290 289 287 286 284 282 280 278 275 273 271 269 268 266 264 263 261 259 257 256 255 254 253 252 251 248 247 245 243 241 239 237 236 235 234 233 232 232 233 233 232 232 232 232 232 231 231 231 231 230 230 229 229 229 230 232 232 233 235 235 236 237 238 239 241 242 243 244 246 246 246 246 247 248 249 249 250 251 251 252
300 298 297 295 294 294 293 293 292 291 290 288 285 283 280 277 275 272 270 268 267 265 264 262 260 259 257 255 254 253 253 252 250 248 246 244 243 241 239 237 236 234 233 233 232 231 232 232 232 232 232 232 232 231 231 231 231 230 229 229 228 228 229 231 231 232 234 235 236 237 238 239 240 241 242 244 246 246 246 246 247 247 248 249 249 250 250 250
300 298 297 297 297 297 297 297 297 295 293 291 288 284 281 278 275 273 271 269 267 266 264 262 260 258 257 255 254 252 251 250 248 247 246 244 242 240 239 237 236 234 233 232 231 230 230 231 231 231 231 231 231 231 231 230 230 229 229 229 228 227 228 229 230 232 233 235 236 237 238 238 239 241 242 243 245 246 246 246 247 247 247 248 248 248 249 249
301 301 301 302 303 303 304 304 303 301 299 296 292 288 284 281 278 275 273 270 269 267 265 263 260 258 256 254 252 251 250 248 247 246 245 243 241 240 239 237 236 235 233 232 231 230 229 229 230 231 230 230 230 230 230 230 230 228 228 229 227 227 228 228 229 231 233 234 235 236 237 238 239 241 242 242 244 245 245 246 246 246 247 247 247 247 248 248
305 305 306 308 309 311 311 311 310 309 306 303 299 294 289 286 283 280 277 274 271 269 266 264 261 259 256 253 251 249 248 247 245 244 243 242 241 239 238 237 236 235 233 232 231 230 229 229 229 229 230 230 230 230 229 230 230 228 228 228 227 226 227 227 229 229 231 233 234 236 237 238 239 240 241 241 242 244 244 244 245 245 246 246 246 246 246 247
309 310 312 314 317 318 319 319 318 317 314 310 305 299 293 290 286 284 281 278 276 273 270 267 263 260 257 254 252 249 247 246 244 242 241 240 239 238 237 236 235 235 234 232 231 230 229 228 228 228 228 229 229 229 229 229 229 228 227 228 227 226 226 227 228 229 230 231 233 235 236 236 238 238 239 240 241 243 243 244 244 244 245 245 245 245 245 246
314 316 319 322 324 326 327 326 325 324 321 316 309 302 297 292 288 285 281 279 277 276 274 272 268 264 259 255 253 250 247 245 243 241 239 238 237 237 236 235 234 234 233 232 231 230 229 228 228 227 227 227 228 228 228 227 228 228 227 227 227 226 226 226 227 228 229 230 231 234 234 234 237 237 238 240 241 242 243 243 243 243 243 244 244 244 244 245
322 324 326 328 330 332 333 332 331 330 326 321 315 308 303 297 292 287 283 280 278 277 276 275 273 269 263 257 254 251 248 245 242 240 238 237 236 235 234 234 233 233 233 232 231 229 229 228 227 227 226 226 226 226 227 227 227 227 227 227 227 227 227 227 226 227 229 230 230 233 233 233 236 235 237 239 239 240 241 242 242 242 242 242 243 244 243 244
329 331 333 334 336 338 338 337 336 335 332 327 322 316 311 304 297 291 286 283 281 280 277 275 273 271 267 261 256 251 247 245 242 239 237 236 234 233 232 232 231 231 231 231 230 229 228 228 227 226 225 225 225 226 226 226 226 227 227 227 227 227 228 227 226 227 229 229 230 231 231 233 235 234 236 238 239 239 241 241 241 241 241 241 242 244 243 243
335 336 338 339 341 342 343 342 342 341 338 333 329 325 319 311 302 295 291 288 287 285 281 276 271 267 265 262 259 253 248 245 242 239 236 234 233 232 231 230 229 230 230 230 229 229 228 227 227 226 225 224 224 225 226 227 227 228 228 227 228 228 228 227 225 227 229 229 230 230 230 232 233 233 235 237 238 239 240 240 241 240 240 241 242 243 244 244
340 341 342 343 344 346 347 346 346 346 344 339 336 332 327 319 308 301 296 295 294 290 285 281 275 268 264 262 260 257 250 244 240 238 235 232 231 230 229 229 228 228 228 228 228 228 227 227 226 225 225 224 224 225 226 226 226 226 226 225 225 226 226 227 225 226 229 229 229 230 230 232 231 230 233 236 237 238 238 239 240 240 240 240 241 242 243 243
344 344 345 346 347 349 350 350 350 350 349 345 340 336 332 325 316 307 302 300 298 294 291 288 282 275 268 264 261 257 251 244 239 237 235 232 230 229 228 228 227 227 227 227 227 226 226 226 225 225 224 224 224 223 224 224 223 224 224 223 224 224 224 226 224 223 229 229 228 229 230 231 229 228 231 234 236 237 237 239 240 240 240 239 239 240 242 243
346 347 347 348 349 351 352 352 352 353 353 349 344 339 335 331 323 315 309 306 303 300 297 293 287 281 273 266 260 256 251 246 240 236 234 232 231 228 227 227 227 226 226 226 226 225 225 224 224 223 223 223 222 221 221 222 222 222 223 223 224 224 223 225 223 220 226 228 226 227 229 229 229 228 230 232 235 236 237 238 239 239 239 239 239 240 241 243
348 348 349 350 351 352 354 354 354 355 356 352 347 343 341 337 330 322 317 313 311 306 301 297 291 285 277 266 259 256 253 247 241 237 233 231 230 228 226 226 226 225 225 225 224 224 223 223 222 222 222 222 221 220 220 221 221 221 221 222 223 223 222 223 223 220 224 228 227 226 228 229 228 227 229 232 234 235 236 237 239 240 240 241 242 242 243 244
350 350 350 351 352 354 355 356 355 356 357 355 352 348 346 343 336 329 325 321 318 310 304 299 293 287 279 268 259 255 252 247 241 236 232 229 228 228 226 225 225 224 223 224 224 223 222 221 221 221 221 221 220 220 220 220 219 220 220 221 221 222 221 221 222 221 223 227 228 227 228 229 228 227 229 231 233 235 236 237 239 241 242 243 244 245 246 247
351 351 351 352 353 355 356 357 357 357 358 358 356 353 350 347 342 336 331 327 321 313 305 301 295 288 279 270 261 254 250 246 240 234 231 228 227 227 225 223 223 223 222 223 223 222 221 220 220 220 220 220 219 219 219 219 218 219 219 220 220 221 221 220 220 221 222 225 228 227 227 228 228 228 229 230 232 234 236 237 239 241 243 244 245 245 246 246
352 352 352 353 353 355 357 357 358 358 358 359 359 357 353 350 347 341 335 329 323 317 309 304 298 290 281 272 264 256 249 245 241 235 230 228 227 227 226 224 222 221 221 222 222 221 219 218 218 218 218 219 219 219 219 218 217 218 219 219 220 220 221 220 220 220 221 223 226 227 228 227 227 228 229 230 232 234 235 236 238 239 240 242 243 244 244 245
353 353 353 353 354 355 357 358 358 359 359 360 360 359 356 353 350 345 339 332 328 325 322 315 306 296 285 275 267 259 251 244 241 237 232 229 229 228 227 225 223 220 220 220 220 219 217 217 217 217 216 217 218 218 218 218 217 218 218 219 219 219 220 221 220 221 221 222 224 226 227 227 226 227 228 229 231 234 235 235 236 238 239 240 241 242 243 244
354 354 354 354 354 355 357 358 359 359 360 -0 0 0 358 355 352 348 343 338 335 336 333 326 315 302 291 279 269 262 255 247 241 238 235 231 229 229 227 225 223 220 219 219 219 217 216 216 215 215 215 215 216 216 217 217 216 217 217 218 219 218 219 220 220 220 221 221 222 224 226 226 224 226 227 228 230 232 234 235 236 238 239 240 241 241 242 243
354 355 354 354 355 356 357 358 359 360 0 1 1 0 359 358 355 351 346 344 344 343 339 331 322 311 297 284 273 265 258 251 244 239 237 234 229 228 226 224 222 219 218 219 217 216 215 215 214 214 214 214 215 215 216 216 216 216 216 217 218 217 218 219 219 220 221 221 221 223 226 225 224 225 227 227 229 231 233 235 236 237 238 239 240 240 241 242
354 355 355 355 355 356 357 358 359 0 1 2 2 0 360 359 356 353 351 350 347 345 342 336 327 316 304 291 279 270 261 253 247 239 237 235 231 228 226 223 221 218 218 218 216 214 214 212 212 213 213 213 214 214 215 215 215 215 215 216 217 217 217 218 219 220 221 220 220 222 225 226 224 225 227 227 229 232 234 235 236 236 237 238 239 239 241 242
354 355 355 355 355 356 357 358 359 0 1 2 3 1 360 359 357 357 356 353 349 346 344 340 332 323 312 299 286 276 266 256 249 242 237 235 232 229 226 223 220 217 217 216 215 214 212 210 210 211 211 211 212 213 214 214 214 214 213 215 216 216 217 217 218 220 221 220 220 222 224 225 224 224 226 227 228 231 233 235 236 237 237 238 239 240 240 240
354 355 355 355 355 356 357 358 359 360 0 2 3 2 1 359 359 359 358 354 351 348 346 343 337 329 318 305 292 280 270 260 251 244 238 234 231 228 224 220 217 215 214 214 214 214 212 209 209 210 210 210 210 212 213 214 214 213 213 214 216 216 216 216 218 219 220 219 220 222 223 224 224 223 225 225 226 228 231 232 234 235 235 236 237 238 238 239
353 354 355 355 355 355 356 357 359 359 360 1 3 3 2 1 1 0 357 353 351 349 346 345 341 334 324 312 297 282 272 263 253 245 238 233 229 226 222 217 214 213 211 212 214 213 210 208 208 208 208 209 209 210 212 213 213 213 213 214 215 215 215 216 217 219 219 219 220 221 222 224 223 222 224 224 225 228 229 231 233 234 234 235 236 237 237 238
353 354 355 355 355 356 356 357 358 359 359 0 2 3 3 3 2 1 357 353 350 349 348 347 344 339 330 319 306 291 277 265 255 245 237 230 226 223 220 216 214 211 209 210 213 211 208 207 207 207 207 207 208 209 211 213 213 213 214 214 215 216 216 217 218 219 219 219 220 221 222 223 222 221 224 224 225 228 229 231 232 234 235 236 237 239 239 240
353 354 355 355 355 356 356 356 357 358 359 360 1 3 5 4 4 2 359 354 349 348 349 347 344 342 334 324 314 302 286 270 256 244 235 228 223 220 217 213 212 211 208 208 209 209 208 207 206 207 206 206 207 208 210 212 213 214 215 215 215 217 217 218 218 219 220 219 220 221 221 221 221 221 223 224 225 228 230 231 233 234 236 238 240 241 241 242
352 354 354 354 355 355 356 356 357 357 358 359 360 3 6 6 4 3 360 356 351 348 348 346 345 343 339 330 321 311 296 278 260 245 232 223 218 215 212 208 206 207 207 208 207 206 206 205 205 205 205 205 206 208 209 211 212 213 214 214 214 215 215 216 217 217 218 219 219 221 221 221 221 222 222 224 226 228 230 232 234 236 238 240 241 241 241 241
352 353 354 354 355 355 355 356 357 357 358 358 359 3 5 6 4 3 1 357 354 351 348 347 348 347 344 338 330 323 310 287 264 244 228 216 211 208 204 201 201 202 203 204 205 204 203 203 203 204 203 204 205 207 208 210 211 212 212 213 213 214 214 215 215 216 217 218 218 220 220 220 221 221 222 224 226 228 230 232 234 236 237 239 240 240 239 240
352 353 354 355 354 354 355 356 357 358 358 358 359 2 4 5 4 2 1 359 356 354 351 352 355 354 351 346 340 336 326 299 265 238 221 209 204 201 197 195 195 198 199 199 201 202 202 201 202 202 202 203 204 206 207 209 211 212 212 212 213 214 214 215 215 216 216 217 217 218 218 218 219 219 220 224 225 227 230 232 234 236 237 238 239 239 239 239
352 353 354 354 354 355 355 356 356 357 358 358 359 1 2 3 4 2 1 1 359 358 358 360 1 359 356 351 346 345 340 313 258 223 209 202 199 196 193 190 190 193 196 197 198 200 200 199 200 200 201 202 203 205 206 208 209 211 211 211 211 212 213 215 216 215 216 216 216 217 218 218 218 218 220 224 225 226 229 231 233 235 236 238 238 238 237 237
352 353 353 354 355 355 355 355 356 357 358 358 359 0 1 2 4 4 2 1 0 1 3 5 4 1 357 353 348 349 347 327 229 199 197 196 195 193 190 188 186 188 192 195 196 198 198 198 199 199 200 201 202 203 205 207 208 210 210 211 211 211 211 213 214 214 215 216 215 217 218 217 218 218 220 224 225 226 228 230 232 234 235 236 237 237 236 236
351 353 354 354 354 355 355 355 356 357 358 358 358 360 2 3 4 4 4 2 0 0 4 7 7 3 360 355 351 351 351 347 177 181 188 191 192 191 188 185 184 184 187 192 194 195 196 197 198 199 200 201 202 203 204 206 208 210 210 210 211 211 212 213 213 213 214 214 215 216 218 217 217 218 220 223 225 226 228 230 232 233 234 236 236 236 235 235
351 352 354 354 354 355 355 355 356 356 357 358 358 359 1 3 4 5 5 4 1 360 3 8 8 4 2 0 356 354 358 5 142 171 181 187 189 189 185 182 181 182 184 189 192 193 194 196 197 198 200 201 201 203 204 205 207 209 210 210 211 212 213 213 213 213 214 214 214 216 217 217 217 217 219 222 224 225 227 228 231 232 234 235 236 236 235 236
351 352 354 355 355 355 355 355 355 355 357 357 357 358 0 3 5 6 6 5 2 0 2 7 9 6 4 5 2 360 7 24 117 159 175 185 187 187 183 178 178 182 184 186 189 191 193 195 196 196 198 199 201 202 203 204 205 207 208 209 209 210 211 212 212 213 213 213 213 214 216 217 217 217 219 222 224 225 226 227 230 232 233 234 236 236 236 237
351 352 354 355 355 355 355 355 355 354 356 357 356 357 0 3 4 6 7 7 6 3 1 4 8 6 4 6 8 8 16 42 108 150 165 176 181 182 179 176 176 181 184 184 186 189 191 193 195 195 196 198 199 201 202 204 205 206 206 207 208 208 209 210 211 211 211 211 212 213 215 216 216 218 219 222 224 225 225 227 229 232 234 235 236 237 237 238
350 352 354 355 355 355 355 355 355 354 355 357 356 356 359 2 3 4 6 8 8 5 2 4 8 7 5 7 13 18 28 57 107 142 156 166 172 172 172 174 175 178 181 184 186 187 190 191 193 195 196 197 199 200 201 203 204 205 206 206 206 207 208 209 210 211 210 211 211 213 214 215 215 217 219 222 224 225 226 228 231 233 235 236 237 237 237 238
351 353 354 355 355 355 355 355 355 355 354 356 357 355 356 360 2 3 5 8 8 7 5 6 10 12 9 9 16 25 38 62 100 134 149 161 167 165 165 171 175 177 180 183 186 188 189 191 192 193 195 197 199 201 201 202 203 204 205 205 205 206 207 207 207 208 210 211 211 212 214 215 215 216 218 220 222 224 226 228 231 233 235 235 236 236 236 237
352 353 354 355 355 355 355 354 355 355 354 354 356 355 354 357 1 3 5 7 8 8 7 7 11 14 10 11 21 30 42 61 92 125 144 159 165 162 162 168 174 178 179 181 184 187 189 191 192 192 193 196 198 199 200 201 202 204 205 205 206 206 207 207 206 205 207 209 211 212 214 215 215 216 217 218 221 223 225 227 229 231 232 233 233 233 234 236
352 353 354 355 355 354 354 354 354 355 354 353 354 355 354 356 359 2 4 7 8 9 9 8 12 16 12 13 25 37 48 64 89 117 138 159 162 156 156 163 171 176 179 181 184 187 189 190 190 191 193 195 196 197 199 201 202 203 204 205 205 206 207 207 207 207 207 207 209 212 215 216 216 217 217 218 220 223 225 226 228 229 230 231 231 232 234 235
352 353 354 355 356 355 354 354 354 354 354 353 353 354 355 356 358 1 3 5 7 9 10 10 15 21 18 16 28 43 56 67 87 111 133 154 155 148 149 157 167 174 178 180 184 187 189 190 190 191 192 195 195 195 197 199 201 202 203 203 203 205 206 207 207 208 208 208 208 211 213 215 216 217 218 218 220 223 226 227 228 229 230 229 230 232 234 236
352 353 354 355 356 356 353 353 354 353 353 353 352 353 354 354 357 1 3 5 6 8 10 12 15 22 23 21 29 43 56 70 87 109 133 150 150 146 147 153 163 174 178 180 184 187 189 190 191 191 192 193 194 196 197 198 200 201 202 202 202 203 204 206 207 209 209 210 211 212 213 215 216 217 218 218 219 223 226 227 228 229 229 229 230 231 233 235
352 353 354 354 356 356 354 353 354 353 352 352 351 351 352 354 357 1 3 5 6 7 10 13 15 21 24 23 28 40 53 66 85 108 134 151 151 148 150 155 163 172 179 181 184 186 189 190 190 191 192 193 193 195 197 198 199 200 201 201 202 202 203 205 207 208 209 210 212 213 215 216 216 216 217 217 219 222 226 227 228 227 227 228 229 231 233 235
352 352 353 353 354 356 355 352 353 353 352 351 351 351 351 352 354 358 2 5 7 8 10 12 16 21 23 22 26 41 52 62 79 104 131 151 154 152 152 157 163 170 177 182 184 185 187 189 190 191 191 192 193 194 196 198 199 200 200 200 201 202 203 205 206 207 208 209 211 213 215 217 217 216 216 216 217 221 224 225 226 225 225 227 229 231 233 236
352 352 352 353 353 355 356 353 351 352 352 351 350 349 350 351 351 355 0 4 7 9 10 12 17 22 24 24 28 42 55 63 74 95 121 148 158 156 155 159 165 171 175 180 183 185 186 188 190 191 191 192 193 194 196 198 199 199 199 200 201 202 204 205 207 208 208 209 210 212 215 217 217 217 216 215 217 220 222 223 224 224 225 227 229 231 234 237
Height
10673 10672 10670 10669 10668 10666 10665 10664 10662 10661 10659 10658 10657 10656 10654 10653 10653 10652 10651 10651 10651 10651 10651 10652 10652 10652 10653 10652 10654 10656 10656 10656 10658 10660 10662 10664 10667 10671 10674 10676 10679 10683 10685 10687 10689 10692 10696 10699 10702 10705 10708 10711 10715 10722 10726 10728 10733 10736 10741 10751 10765 10771 10774 10776 10774 10778 10778 10775 10776 10771 10769 10771 10777 10785 10791 10796 10801 10805 10807 10811 10813 10815 10818 10819 10822 10826 10829 10833
10667 10666 10664 10663 10661 10660 10658 10657 10655 10654 10652 10650 10649 10647 10646 10644 10643 10642 10642 10641 10640 10640 10640 10640 10641 10642 10642 10641 10644 10646 10646 10646 10648 10651 10653 10654 10657 10662 10666 10668 10670 10673 10676 10678 10679 10682 10687 10690 10694 10697 10699 10704 10709 10713 10717 10721 10725 10730 10737 10748 10760 10767 10768 10766 10766 10771 10769 10766 10767 10764 10764 10767 10772 10781 10788 10792 10796 10799 10802 10805 10808 10811 10813 10816 10819 10822 10825 10828
10660 10659 10658 10656 10655 10653 10651 10650 10648 10646 10644 10642 10640 10638 10636 10634 10633 10632 10631 10630 10629 10629 10629 10628 10628 10629 10629 10629 10633 10634 10634 10635 10637 10641 10642 10644 10648 10653 10656 10659 10661 10663 10666 10669 10671 10674 10678 10682 10685 10688 10690 10695 10700 10704 10709 10713 10719 10726 10732 10744 10758 10761 10757 10757 10761 10764 10759 10758 10761 10759 10759 10762 10767 10775 10783 10788 10792 10795 10796 10798 10802 10805 10809 10812 10815 10817 10820 10823
10654 10653 10651 10650 10648 10646 10644 10642 10640 10638 10635 10633 10630 10628 10625 10623 10621 10620 10619 10618 10617 10616 10616 10615 10615 10616 10616 10616 10619 10622 10621 10622 10625 10628 10632 10636 10640 10643 10646 10648 10649 10652 10656 10659 10663 10666 10669 10673 10676 10678 10681 10686 10692 10696 10701 10707 10715 10719 10726 10742 10753 10749 10746 10752 10756 10754 10750 10751 10754 10754 10755 10758 10762 10770 10777 10783 10788 10790 10790 10792 10796 10800 10804 10807 10811 10813 10816 10818
10647 10646 10645 10643 10641 10639 10637 10635 10632 10629 10626 10623 10620 10617 10614 10612 10609 10607 10605 10603 10602 10601 10601 10601 10601 10602 10602 10602 10605 10608 10608 10607 10612 10617 10622 10626 10628 10632 10634 10636 10638 10641 10645 10649 10654 10657 10659 10664 10667 10668 10673 10679 10683 10689 10696 10703 10707 10710 10722 10737 10739 10735 10739 10746 10747 10743 10743 10745 10747 10750 10752 10753 10757 10764 10771 10777 10783 10784 10786 10789 10791 10796 10800 10803 10806 10809 10811 10813
10641 10640 10638 10637 10635 10633 10631 10628 10624 10621 10617 10613 10609 10605 10602 10599 10596 10593 10591 10588 10586 10585 10584 10584 10585 10586 10586 10587 10589 10592 10592 10592 10599 10606 10609 10611 10615 10619 10623 10624 10627 10630 10634 10639 10643 10647 10650 10654 10658 10660 10666 10670 10675 10683 10689 10693 10696 10703 10718 10727 10726 10728 10735 10737 10737 10736 10737 10739 10740 10746 10748 10747 10752 10759 10765 10771 10777 10780 10783 10784 10786 10791 10794 10798 10801 10804 10806 10808
10635 10634 10633 10632 10630 10627 10624 10620 10616 10611 10606 10601 10597 10592 10588 10584 10580 10577 10573 10570 10568 10567 10567 10567 10568 10570 10569 10569 10572 10574 10574 10576 10585 10592 10593 10597 10602 10607 10611 10613 10615 10619 10622 10627 10633 10638 10640 10643 10649 10653 10657 10660 10667 10676 10678 10680 10687 10697 10709 10716 10716 10722 10727 10726 10729 10730 10731 10733 10735 10740 10743 10744 10748 10754 10761 10765 10770 10776 10778 10779 10782 10786 10789 10792 10796 10799 10802 10804
10631 10630 10629 10627 10624 10621 10617 10612 10607 10601 10594 10588 10583 10577 10572 10567 10562 10558 10553 10550 10547 10547 10547 10548 10550 10551 10551 10551 10553 10554 10554 10559 10569 10575 10577 10583 10589 10594 10598 10601 10604 10606 10610 10616 10621 10626 10629 10634 10640 10643 10647 10651 10659 10666 10667 10672 10681 10690 10701 10707 10708 10716 10719 10717 10722 10724 10724 10727 10729 10735 10739 10740 10743 10749 10757 10760 10764 10771 10773 10774 10778 10781 10784 10787 10790 10794 10798 10800
10628 10626 10624 10622 10618 10614 10609 10603 10596 10588 10581 10574 10567 10560 10553 10547 10542 10537 10533 10529 10526 10526 10526 10528 10529 10531 10533 10533 10534 10535 10533 10539 10551 10558 10563 10567 10573 10580 10585 10588 10591 10594 10598 10603 10609 10615 10619 10623 10628 10631 10636 10643 10650 10656 10660 10666 10674 10683 10692 10695 10700 10709 10709 10708 10715 10717 10716 10721 10725 10730 10733 10736 10740 10744 10752 10755 10759 10765 10767 10769 10773 10776 10779 10782 10786 10789 10793 10796
10624 10622 10620 10616 10612 10607 10600 10593 10584 10575 10567 10558 10550 10541 10534 10527 10521 10516 10512 10508 10506 10506 10505 10507 10508 10510 10513 10514 10517 10516 10512 10520 10533 10539 10546 10552 10557 10564 10570 10574 10577 10581 10586 10590 10598 10603 10607 10612 10616 10622 10629 10634 10641 10647 10653 10659 10666 10676 10682 10685 10693 10699 10699 10702 10708 10710 10710 10715 10721 10725 10727 10731 10735 10739 10748 10753 10755 10758 10761 10764 10768 10772 10775 10778 10782 10785 10788 10791
10621 10618 10614 10610 10605 10598 10590 10581 10571 10562 10552 10542 10532 10523 10515 10508 10502 10497 10494 10490 10488 10487 10486 10487 10488 10490 10493 10496 10499 10494 10490 10503 10514 10519 10528 10535 10539 10546 10553 10559 10562 10567 10573 10578 10585 10591 10596 10602 10606 10614 10619 10623 10633 10639 10644 10651 10658 10668 10673 10676 10685 10689 10690 10696 10701 10704 10707 10712 10717 10719 10719 10724 10732 10738 10746 10751 10751 10752 10755 10759 10763 10767 10770 10773 10777 10781 10783 10787
10616 10612 10608 10603 10597 10589 10579 10569 10558 10546 10536 10525 10515 10506 10498 10491 10486 10481 10477 10474 10471 10470 10469 10469 10470 10472 10475 10480 10478 10470 10472 10486 10494 10500 10509 10515 10521 10528 10536 10544 10548 10553 10560 10565 10571 10579 10585 10590 10596 10602 10606 10615 10626 10629 10635 10644 10650 10659 10664 10666 10675 10679 10682 10690 10695 10699 10703 10707 10711 10711 10712 10721 10732 10737 10741 10746 10746 10745 10749 10753 10758 10761 10765 10769 10772 10776 10779 10782
10611 10606 10601 10595 10587 10579 10568 10556 10544 10532 10521 10510 10500 10491 10483 10476 10470 10466 10462 10459 10456 10455 10453 10452 10453 10455 10458 10462 10455 10450 10458 10467 10473 10481 10488 10496 10503 10510 10520 10528 10534 10539 10546 10553 10559 10567 10573 10579 10586 10590 10598 10610 10614 10617 10630 10639 10641 10649 10655 10657 10664 10669 10677 10687 10689 10694 10698 10701 10705 10703 10709 10722 10729 10730 10733 10740 10739 10738 10744 10748 10752 10757 10760 10764 10768 10772 10774 10777
10604 10599 10593 10586 10578 10569 10557 10544 10532 10519 10508 10497 10488 10479 10471 10464 10457 10452 10447 10444 10441 10439 10438 10438 10438 10439 10443 10443 10434 10434 10444 10448 10454 10463 10468 10477 10485 10492 10503 10512 10519 10525 10532 10540 10547 10555 10562 10568 10575 10580 10590 10598 10601 10612 10625 10627 10630 10639 10645 10647 10655 10665 10677 10682 10682 10688 10691 10694 10700 10697 10706 10721 10720 10720 10728 10733 10734 10734 10739 10742 10746 10753 10756 10759 10763 10767 10770 10772
10598 10592 10585 10578 10569 10559 10547 10534 10521 10509 10497 10487 10478 10469 10461 10453 10446 10441 10435 10431 10428 10425 10424 10423 10423 10424 10428 10425 10417 10421 10428 10431 10438 10445 10451 10460 10467 10476 10487 10496 10504 10510 10516 10525 10534 10543 10550 10556 10563 10570 10580 10586 10593 10605 10610 10613 10622 10628 10634 10641 10653 10664 10672 10672 10676 10683 10683 10688 10693 10689 10705 10716 10708 10715 10725 10725 10728 10729 10732 10737 10742 10747 10751 10754 10757 10761 10766 10767
10590 10584 10577 10568 10559 10548 10537 10524 10511 10499 10488 10478 10468 10459 10451 10443 10436 10431 10425 10421 10417 10415 10413 10410 10409 10410 10411 10409 10405 10408 10412 10416 10423 10430 10437 10445 10451 10460 10470 10478 10487 10493 10501 10510 10521 10530 10537 10544 10552 10559 10568 10575 10585 10594 10597 10604 10612 10618 10630 10642 10653 10660 10663 10665 10672 10677 10676 10681 10685 10687 10704 10706 10698 10713 10719 10716 10721 10722 10725 10732 10736 10742 10747 10749 10752 10756 10760 10762
10581 10575 10567 10558 10548 10538 10526 10514 10502 10490 10479 10468 10459 10450 10442 10435 10427 10421 10416 10412 10409 10407 10404 10400 10398 10396 10395 10394 10393 10394 10397 10403 10410 10417 10423 10429 10436 10444 10452 10461 10469 10478 10486 10495 10507 10517 10525 10532 10539 10548 10557 10566 10576 10582 10585 10594 10607 10618 10632 10643 10649 10653 10655 10660 10667 10670 10670 10676 10681 10687 10696 10693 10695 10711 10712 10709 10713 10715 10721 10726 10730 10736 10741 10745 10747 10751 10755 10757
10573 10565 10557 10548 10538 10528 10516 10504 10492 10480 10469 10458 10449 10440 10432 10425 10418 10412 10407 10404 10402 10398 10393 10389 10387 10385 10383 10381 10380 10382 10388 10393 10398 10403 10408 10414 10421 10428 10436 10444 10453 10462 10469 10479 10492 10503 10511 10519 10527 10535 10543 10554 10565 10571 10580 10598 10614 10623 10631 10640 10644 10645 10647 10652 10660 10663 10664 10671 10675 10678 10684 10685 10695 10705 10703 10702 10705 10710 10716 10720 10724 10730 10736 10742 10744 10747 10749 10752
10564 10556 10548 10539 10529 10519 10507 10495 10483 10471 10459 10449 10440 10432 10424 10417 10410 10403 10397 10396 10394 10387 10382 10379 10376 10375 10373 10372 10372 10374 10377 10381 10385 10388 10393 10401 10408 10415 10423 10430 10439 10447 10453 10463 10477 10489 10497 10505 10513 10521 10533 10549 10563 10575 10590 10602 10608 10612 10620 10627 10628 10630 10637 10643 10653 10659 10658 10663 10667 10671 10677 10680 10689 10697 10695 10696 10698 10703 10709 10713 10719 10725 10732 10738 10740 10742 10743 10747
10556 10548 10540 10531 10521 10510 10499 10487 10475 10463 10451 10441 10432 10424 10417 10409 10402 10395 10388 10387 10386 10378 10373 10371 10367 10366 10366 10366 10365 10364 10365 10368 10373 10376 10383 10392 10398 10405 10412 10418 10426 10433 10441 10451 10463 10474 10481 10488 10500 10515 10534 10552 10564 10575 10581 10581 10588 10597 10604 10611 10613 10621 10632 10636 10644 10653 10651 10653 10660 10665 10668 10671 10681 10689 10688 10688 10690 10697 10704 10710 10715 10721 10727 10731 10733 10736 10738 10742
10548 10540 10532 10523 10513 10502 10491 10480 10468 10457 10446 10435 10426 10417 10409 10402 10395 10389 10381 10377 10376 10371 10366 10363 10359 10358 10358 10358 10356 10354 10355 10359 10363 10367 10375 10384 10388 10394 10401 10407 10413 10421 10431 10439 10447 10456 10463 10473 10493 10514 10532 10541 10547 10555 10557 10564 10579 10588 10594 10604 10609 10617 10626 10626 10635 10646 10642 10643 10652 10656 10657 10663 10674 10681 10681 10682 10686 10693 10700 10706 10710 10714 10719 10723 10728 10732 10734 10740
10541 10532 10524 10515 10505 10495 10484 10473 10462 10451 10441 10430 10421 10411 10403 10395 10388 10383 10376 10370 10366 10363 10359 10356 10352 10350 10350 10350 10348 10347 10348 10351 10355 10360 10367 10373 10377 10382 10389 10393 10399 10409 10418 10422 10428 10437 10448 10467 10493 10511 10517 10520 10528 10538 10545 10559 10572 10578 10587 10596 10601 10609 10615 10618 10628 10638 10636 10636 10643 10647 10651 10658 10667 10672 10675 10679 10684 10689 10695 10700 10704 10708 10714 10720 10724 10729 10732 10737
10534 10525 10517 10508 10499 10488 10477 10467 10456 10445 10436 10426 10415 10405 10396 10389 10382 10376 10371 10365 10360 10356 10352 10349 10346 10344 10342 10342 10341 10340 10341 10343 10347 10353 10358 10362 10365 10370 10376 10381 10388 10396 10402 10407 10415 10427 10445 10470 10488 10493 10496 10505 10520 10532 10541 10553 10562 10570 10579 10585 10592 10600 10605 10614 10623 10629 10632 10632 10634 10641 10647 10652 10659 10666 10671 10676 10680 10683 10690 10696 10700 10705 10712 10717 10721 10726 10730 10734
10527 10518 10509 10501 10492 10482 10471 10461 10450 10440 10430 10420 10410 10400 10391 10384 10377 10370 10365 10360 10356 10351 10347 10344 10341 10339 10336 10335 10335 10334 10334 10335 10338 10344 10347 10350 10353 10357 10363 10369 10375 10382 10389 10397 10406 10421 10442 10461 10467 10471 10484 10502 10514 10524 10532 10542 10554 10563 10570 10577 10585 10592 10599 10609 10614 10619 10624 10623 10626 10637 10641 10645 10656 10664 10669 10673 10676 10680 10687 10693 10698 10703 10709 10712 10716 10722 10726 10727
10521 10512 10503 10495 10486 10476 10466 10456 10445 10434 10424 10414 10405 10396 10387 10379 10372 10366 10361 10356 10351 10346 10342 10338 10335 10333 10331 10329 10329 10328 10329 10329 10330 10334 10337 10339 10342 10347 10352 10357 10364 10373 10381 10388 10398 10414 10431 10441 10448 10461 10480 10495 10503 10513 10523 10535 10549 10556 10563 10572 10578 10586 10595 10601 10605 10609 10613 10616 10624 10631 10634 10643 10654 10659 10664 10670 10673 10677 10683 10689 10695 10699 10703 10706 10711 10716 10719 10720
10516 10507 10498 10489 10480 10471 10461 10451 10441 10430 10420 10410 10401 10392 10383 10375 10368 10362 10357 10352 10347 10341 10337 10334 10331 10328 10326 10324 10323 10322 10323 10323 10323 10326 10329 10332 10335 10339 10344 10349 10356 10364 10372 10379 10388 10403 10417 10426 10438 10453 10469 10481 10490 10503 10516 10528 10541 10548 10557 10566 10572 10582 10590 10593 10599 10601 10605 10615 10621 10623 10629 10640 10648 10653 10659 10666 10669 10673 10678 10685 10690 10693 10696 10701 10705 10710 10711 10713
10511 10503 10494 10485 10476 10466 10457 10447 10437 10426 10416 10406 10397 10388 10380 10372 10364 10358 10353 10348 10342 10336 10331 10329 10326 10324 10322 10320 10318 10317 10317 10317 10318 10320 10322 10325 10328 10331 10336 10342 10348 10355 10363 10368 10377 10392 10405 10416 10429 10442 10457 10469 10480 10496 10510 10521 10532 10541 10551 10558 10565 10576 10579 10582 10591 10594 10600 10608 10610 10616 10625 10633 10642 10649 10655 10661 10665 10668 10674 10681 10685 10688 10692 10696 10700 10703 10704 10707
10507 10499 10490 10481 10472 10463 10453 10444 10434 10423 10413 10403 10393 10385 10378 10369 10362 10355 10349 10343 10337 10332 10328 10324 10322 10320 10318 10315 10314 10313 10312 10312 10313 10315 10317 10319 10322 10324 10329 10335 10340 10348 10355 10359 10371 10388 10398 10409 10423 10435 10447 10460 10475 10491 10501 10511 10522 10531 10541 10550 10557 10564 10567 10574 10584 10586 10589 10595 10604 10614 10620 10628 10641 10647 10651 10657 10662 10666 10673 10677 10679 10683 10687 10690 10693 10695 10697 10703
10502 10494 10486 10477 10468 10459 10450 10441 10431 10421 10411 10401 10391 10383 10375 10367 10360 10353 10345 10339 10334 10329 10325 10321 10318 10316 10314 10312 10310 10309 10308 10308 10309 10310 10312 10313 10317 10320 10323 10328 10334 10341 10347 10355 10370 10380 10386 10400 10413 10423 10436 10452 10469 10480 10488 10501 10511 10520 10533 10542 10547 10553 10560 10567 10574 10577 10579 10589 10605 10614 10617 10628 10639 10643 10648 10656 10662 10667 10670 10671 10674 10678 10681 10683 10685 10688 10693 10700
10499 10490 10482 10473 10464 10455 10447 10437 10428 10418 10409 10400 10390 10382 10373 10366 10359 10350 10342 10336 10332 10327 10323 10319 10315 10313 10310 10308 10306 10305 10305 10304 10305 10306 10307 10309 10312 10315 10319 10324 10330 10337 10344 10354 10363 10367 10376 10391 10402 10412 10427 10443 10456 10467 10480 10494 10502 10512 10526 10532 10536 10544 10551 10558 10565 10568 10573 10589 10606 10612 10616 10625 10633 10640 10649 10656 10661 10664 10664 10666 10670 10673 10676 10677 10679 10683 10689 10694
10495 10487 10478 10470 10461 10452 10444 10435 10425 10415 10407 10398 10390 10381 10373 10364 10356 10347 10339 10334 10329 10325 10320 10316 10313 10310 10307 10306 10303 10302 10301 10301 10301 10302 10303 10305 10308 10311 10314 10319 10325 10331 10338 10347 10353 10359 10373 10385 10393 10405 10419 10432 10444 10458 10475 10485 10491 10505 10518 10521 10525 10535 10542 10550 10556 10559 10572 10594 10605 10607 10612 10619 10628 10641 10646 10651 10655 10656 10658 10662 10664 10666 10668 10670 10673 10677 10683 10688
10493 10484 10476 10467 10458 10449 10441 10432 10423 10414 10405 10397 10389 10382 10373 10363 10353 10344 10338 10333 10328 10324 10319 10314 10311 10307 10304 10302 10300 10299 10298 10298 10298 10298 10299 10301 10304 10307 10310 10314 10319 10325 10333 10341 10347 10357 10371 10381 10390 10402 10413 10425 10439 10454 10467 10472 10482 10498 10505 10508 10517 10527 10535 10543 10549 10560 10580 10596 10597 10600 10607 10615 10628 10639 10641 10646 10650 10651 10654 10657 10657 10659 10661 10663 10667 10672 10679 10683
10490 10482 10473 10465 10457 10448 10438 10430 10421 10413 10405 10396 10389 10382 10372 10362 10352 10344 10338 10331 10326 10321 10317 10312 10308 10305 10302 10300 10298 10296 10295 10295 10295 10295 10296 10298 10300 10304 10307 10311 10315 10321 10329 10336 10344 10356 10366 10374 10384 10393 10404 10419 10433 10446 10455 10464 10480 10492 10497 10507 10518 10526 10536 10545 10555 10570 10582 10587 10590 10597 10604 10613 10626 10633 10635 10642 10646 10646 10649 10650 10650 10653 10655 10659 10664 10670 10677 10681
10488 10480 10471 10463 10455 10446 10437 10428 10420 10412 10404 10395 10388 10382 10372 10362 10353 10346 10339 10332 10325 10320 10315 10310 10306 10303 10300 10298 10296 10294 10293 10292 10292 10293 10294 10295 10298 10301 10304 10308 10314 10320 10326 10331 10341 10353 10362 10371 10381 10390 10403 10417 10429 10441 10453 10466 10482 10491 10499 10512 10521 10528 10541 10552 10560 10569 10574 10580 10588 10593 10600 10612 10622 10627 10633 10639 10640 10640 10643 10644 10646 10648 10652 10657 10663 10670 10676 10678
10486 10478 10470 10461 10453 10445 10437 10428 10420 10411 10403 10394 10387 10379 10370 10362 10354 10347 10341 10334 10327 10320 10314 10310 10306 10302 10299 10296 10294 10292 10291 10290 10290 10291 10292 10293 10296 10299 10302 10306 10311 10318 10324 10331 10340 10350 10359 10371 10380 10390 10403 10414 10426 10438 10448 10460 10471 10480 10490 10501 10511 10523 10535 10541 10548 10555 10562 10573 10583 10589 10599 10610 10616 10624 10631 10632 10633 10635 10638 10640 10643 10647 10651 10656 10662 10667 10670 10672
10486 10477 10469 10460 10452 10444 10436 10428 10420 10410 10401 10393 10386 10376 10368 10361 10354 10348 10341 10335 10328 10322 10315 10309 10305 10301 10298 10295 10293 10291 10289 10289 10289 10289 10290 10292 10294 10297 10300 10304 10308 10314 10321 10329 10339 10347 10356 10366 10374 10383 10396 10408 10420 10431 10441 10454 10464 10470 10480 10495 10508 10517 10524 10530 10539 10549 10558 10570 10581 10587 10597 10605 10612 10621 10625 10624 10628 10631 10633 10637 10641 10644 10649 10653 10657 10661 10664 10668
10486 10477 10469 10461 10452 10444 10435 10427 10418 10410 10400 10391 10381 10372 10366 10361 10354 10348 10342 10334 10328 10322 10316 10309 10303 10300 10296 10294 10292 10290 10288 10288 10288 10288 10289 10291 10292 10295 10298 10302 10307 10313 10319 10326 10335 10344 10352 10361 10370 10381 10393 10403 10413 10423 10436 10447 10455 10465 10481 10496 10504 10510 10519 10528 10537 10547 10557 10568 10577 10584 10591 10599 10607 10614 10616 10617 10622 10626 10629 10633 10636 10640 10645 10649 10652 10655 10660 10663
10485 10476 10468 10460 10453 10443 10434 10425 10417 10409 10401 10391 10381 10374 10367 10362 10356 10348 10340 10333 10327 10321 10315 10308 10303 10299 10296 10293 10291 10289 10288 10287 10287 10288 10289 10290 10292 10294 10297 10300 10305 10311 10318 10325 10333 10341 10349 10357 10367 10378 10388 10397 10407 10419 10429 10437 10447 10461 10475 10484 10491 10504 10519 10527 10534 10545 10555 10564 10574 10580 10586 10594 10601 10607 10610 10613 10618 10622 10625 10628 10632 10636 10641 10643 10645 10650 10654 10657
10483 10475 10467 10459 10452 10443 10434 10425 10417 10409 10401 10393 10385 10378 10371 10363 10355 10348 10340 10332 10326 10320 10315 10309 10304 10300 10296 10294 10292 10290 10288 10287 10287 10287 10288 10290 10292 10294 10297 10300 10304 10310 10318 10325 10332 10340 10348 10356 10364 10373 10382 10390 10401 10412 10422 10433 10445 10456 10465 10476 10490 10503 10512 10518 10530 10543 10551 10560 10571 10575 10581 10590 10598 10603 10607 10609 10613 10618 10620 10623 10628 10631 10634 10636 10639 10644 10649 10650
10482 10474 10466 10457 10449 10441 10433 10425 10416 10408 10401 10394 10386 10380 10373 10366 10357 10349 10342 10334 10326 10321 10315 10310 10305 10301 10297 10295 10292 10291 10289 10288 10288 10287 10289 10290 10292 10294 10297 10301 10305 10310 10317 10324 10331 10339 10347 10355 10363 10371 10380 10390 10400 10411 10422 10434 10445 10454 10467 10484 10496 10503 10509 10518 10530 10540 10548 10558 10567 10571 10579 10588 10593 10598 10603 10604 10608 10612 10616 10620 10622 10625 10628 10630 10634 10639 10643 10643
10480 10473 10464 10455 10447 10440 10432 10424 10416 10409 10401 10394 10387 10381 10375 10368 10360 10352 10343 10335 10328 10322 10316 10311 10307 10302 10299 10296 10294 10292 10290 10289 10289 10288 10289 10291 10293 10295 10298 10302 10307 10311 10316 10324 10332 10340 10347 10355 10363 10373 10383 10393 10403 10412 10421 10432 10444 10456 10472 10484 10493 10502 10512 10521 10531 10540 10547 10556 10563 10570 10577 10582 10588 10594 10597 10598 10601 10606 10611 10614 10616 10619 10623 10625 10629 10634 10636 10636
10477 10470 10463 10456 10447 10438 10430 10422 10414 10408 10401 10394 10388 10383 10376 10368 10361 10354 10346 10339 10332 10325 10318 10313 10309 10304 10301 10297 10295 10293 10292 10291 10290 10290 10291 10293 10295 10297 10300 10304 10308 10313 10317 10323 10332 10340 10347 10355 10363 10373 10383 10392 10401 10410 10420 10430 10440 10451 10464 10475 10486 10499 10510 10520 10529 10536 10543 10552 10560 10566 10571 10577 10585 10589 10591 10592 10596 10601 10605 10608 10610 10614 10617 10620 10625 10629 10630 10632
10476 10469 10463 10456 10448 10438 10430 10422 10413 10405 10400 10393 10386 10380 10375 10368 10361 10355 10350 10343 10336 10328 10321 10316 10311 10307 10303 10300 10297 10295 10294 10293 10292 10292 10293 10295 10298 10301 10304 10306 10310 10315 10321 10326 10333 10340 10347 10355 10363 10371 10379 10388 10397 10406 10416 10424 10434 10446 10459 10473 10487 10498 10507 10513 10518 10525 10536 10547 10555 10561 10566 10573 10580 10583 10585 10588 10591 10595 10599 10602 10605 10609 10613 10617 10621 10624 10626 10628
10477 10469 10461 10454 10448 10440 10431 10423 10414 10404 10398 10392 10384 10376 10372 10368 10362 10356 10351 10345 10338 10331 10325 10319 10314 10310 10306 10303 10300 10298 10296 10295 10294 10294 10295 10297 10300 10304 10307 10310 10313 10318 10325 10330 10335 10340 10346 10354 10362 10370 10378 10386 10393 10402 10412 10425 10439 10452 10464 10475 10485 10491 10496 10502 10511 10524 10537 10544 10549 10554 10560 10567 10573 10576 10580 10583 10586 10591 10595 10598 10602 10606 10610 10613 10617 10619 10621 10623
10476 10468 10460 10453 10447 10440 10432 10424 10417 10407 10398 10392 10387 10379 10372 10369 10365 10358 10351 10344 10339 10332 10326 10321 10316 10312 10309 10306 10303 10301 10299 10298 10297 10298 10298 10300 10303 10306 10309 10313 10317 10321 10326 10331 10337 10342 10348 10354 10361 10371 10381 10391 10400 10410 10421 10433 10443 10452 10460 10469 10476 10482 10490 10500 10513 10526 10535 10539 10545 10550 10555 10561 10566 10569 10573 10577 10581 10585 10590 10594 10598 10602 10605 10609 10611 10613 10615 10617
10476 10468 10461 10454 10446 10439 10433 10425 10418 10411 10401 10394 10389 10383 10375 10370 10365 10359 10353 10347 10341 10335 10329 10324 10319 10315 10313 10310 10307 10304 10303 10302 10302 10301 10302 10304 10305 10308 10311 10316 10320 10325 10329 10335 10340 10345 10351 10358 10365 10374 10383 10390 10400 10411 10422 10430 10438 10446 10457 10466 10475 10484 10493 10502 10511 10520 10527 10533 10541 10547 10550 10555 10560 10563 10568 10573 10576 10580 10585 10590 10593 10596 10599 10603 10605 10607 10609 10611
10479 10471 10463 10455 10447 10438 10432 10426 10418 10412 10405 10397 10391 10386 10379 10372 10366 10360 10354 10349 10345 10339 10333 10328 10323 10319 10316 10314 10311 10308 10306 10306 10306 10306 10307 10309 10310 10312 10316 10321 10326 10331 10336 10340 10345 10349 10354 10361 10369 10377 10383 10390 10399 10410 10420 10429 10437 10447 10456 10467 10477 10486 10494 10503 10512 10518 10523 10530 10538 10542 10545 10550 10555 10559 10564 10569 10573 10576 10580 10584 10588 10591 10594 10598 10600 10602 10604 10606
10479 10472 10463 10456 10448 10439 10431 10426 10419 10411 10405 10397 10391 10386 10380 10375 10370 10364 10357 10352 10347 10342 10337 10332 10326 10322 10319 10317 10314 10312 10310 10310 10310 10310 10311 10314 10315 10317 10321 10327 10332 10337 10340 10344 10349 10353 10358 10364 10370 10377 10384 10393 10402 10410 10417 10426 10435 10445 10454 10465 10475 10485 10494 10503 10510 10515 10521 10528 10531 10533 10538 10545 10550 10555 10561 10567 10570 10572 10575 10580 10584 10587 10590 10593 10595 10597 10600 10603
10475 10468 10461 10454 10449 10440 10430 10424 10418 10410 10404 10397 10391 10386 10381 10376 10371 10366 10359 10353 10348 10344 10340 10334 10329 10325 10322 10320 10318 10316 10314 10314 10314 10315 10316 10317 10319 10320 10323 10328 10334 10339 10343 10347 10351 10355 10361 10367 10373 10380 10387 10395 10403 10411 10418 10426 10435 10444 10454 10464 10474 10482 10491 10499 10505 10512 10519 10524 10527 10531 10537 10542 10546 10553 10559 10564 10566 10568 10571 10576 10580 10583 10587 10589 10590 10592 10595 10598
10473 10467 10460 10452 10447 10440 10430 10423 10417 10410 10403 10397 10391 10385 10381 10376 10371 10366 10361 10356 10352 10347 10342 10337 10333 10328 10324 10323 10322 10320 10319 10318 10318 10319 10320 10321 10322 10323 10326 10329 10334 10339 10344 10348 10352 10357 10363 10370 10377 10384 10390 10397 10404 10413 10421 10429 10438 10445 10454 10462 10471 10480 10487 10494 10501 10508 10515 10520 10526 10532 10536 10538 10543 10550 10555 10558 10562 10564 10567 10570 10575 10579 10582 10583 10585 10587 10590 10593
10472 10466 10459 10451 10445 10440 10431 10422 10417 10411 10403 10396 10390 10384 10378 10374 10371 10368 10364 10360 10355 10349 10344 10340 10336 10331 10328 10326 10325 10324 10323 10323 10323 10323 10324 10325 10325 10326 10329 10332 10335 10340 10345 10350 10354 10359 10365 10372 10379 10385 10392 10399 10406 10414 10422 10429 10435 10443 10453 10462 10471 10479 10486 10492 10498 10504 10511 10517 10523 10527 10530 10534 10539 10545 10549 10553 10556 10558 10561 10565 10569 10572 10575 10577 10579 10583 10586 10589
10470 10463 10457 10448 10441 10438 10432 10422 10414 10410 10405 10397 10391 10386 10381 10376 10371 10368 10364 10360 10356 10352 10348 10344 10339 10335 10333 10331 10329 10328 10327 10326 10327 10328 10328 10330 10330 10331 10332 10335 10338 10340 10344 10349 10355 10361 10367 10373 10380 10387 10393 10399 10406 10413 10419 10425 10433 10445 10455 10463 10471 10477 10483 10489 10495 10502 10508 10513 10518 10523 10526 10529 10533 10539 10543 10547 10550 10552 10556 10559 10563 10568 10571 10573 10575 10578 10582 10584